User: anonymous   Login
Location: Elstree
(51.6403°N, 0.2969°W)
Time: 13:51:34
(UTC+00:00)
Language:

ARGOS - Orbit

View from above orbital plane
View from above orbital plane
View from above satellite
View from above satellite

Ground track
Ground track

The orbit data is extracted from the following two-line orbital elements,

1 25634U 99008A   21125.82930593 -.00000006  00000-0  16632-4 0  9995
2 25634  98.4227 155.6047 0011304  66.2532 293.9829 14.19393887149217
Epoch (UTC): 05 May 2021 19:54:12
Eccentricity: 0.0011304
inclination: 98.4227°
perigee height: 819 km
apogee height: 835 km
right ascension of ascending node: 155.6047°
argument of perigee: 66.2532°
revolutions per day: 14.19393887
mean anomaly at epoch: 293.9829°
orbit number at epoch: 14921

The dashed part of the orbit path shows where the satellite is in the earth's shadow,  

DLR